Weather History for Oujda, Morocco

Change the Weather History Date:

Friday, March 1, 2013

  Actual Average Record
Temperature  
Mean Temperature 50 °F -  
Max Temperature 59 °F 66 °F 75 °F (2007)
Min Temperature 39 °F 43 °F 35 °F (2011)
Degree Days  
Heating Degree Days 15    
Moisture  
Dew Point 37 °F    
Average Humidity 67    
Maximum Humidity 81    
Minimum Humidity 28    
Precipitation  
Precipitation 0.00 in 0.06 in - ()
Sea Level Pressure  
Sea Level Pressure 29.98 in    
Wind  
Wind Speed 16 mph ()    
Max Wind Speed 28 mph    
Max Gust Speed 33 mph    
Visibility 6.9 miles    
Events      
Averages and records for this station are not official NWS values.
T = Trace of Precipitation, MM = Missing Value Source: Averaged Metar Reports

Daily Weather History Graph

Daily Weather History Graph

Search for Another Location

Airport:

Trip Planner

Search our weather history database for the weather conditions in past years. The results will help you decide how hot, cold, wet, or windy it might be!

Date:

Astronomy

Mar. 01, 2013 Rise Set
Actual Time 6:36 AM WET 6:03 PM WET
Civil Twilight 6:11 AM WET 6:28 PM WET
Nautical Twilight 5:42 AM WET 6:58 PM WET
Astronomical Twilight 5:13 AM WET 7:27 PM WET
Moon 10:08 PM WET (3/1) 8:25 AM WET (3/1)
Length of Visible Light 12h 17m
Length of Day
11h 26m
Waning Gibbous, 85% of the Moon is Illuminated
Mar 1
Waning Gibbous
Mar 4
Last Quarter
Mar 11
New
Mar 19
First Quarter
Mar 27
Full

Hourly Weather History & Observations

Time (WET) Temp. Windchill Dew Point Humidity Pressure Visibility Wind Dir Wind Speed Gust Speed Precip Events Conditions
12:00 AM 44 °F - 36 °F 66% 29.92 in 6 mi West 27.6 mph - -   Partly Cloudy
12:00 AM 44.6 °F 35.1 °F 35.6 °F 71% 29.89 in 6.2 mi West 27.6 mph - N/A   Partly Cloudy
2:00 AM 42.8 °F 33.8 °F 35.6 °F 76% 29.89 in 6.2 mi West 21.9 mph 33.4 mph N/A   Partly Cloudy
3:00 AM 44 °F - 36 °F 66% 29.92 in 6 mi West 18.4 mph - -   Partly Cloudy
3:00 AM 42.8 °F 34.5 °F 37.4 °F 81% 29.89 in 6.2 mi West 18.4 mph - N/A   Partly Cloudy
4:00 AM 42.8 °F 32.9 °F 37.4 °F 81% 29.89 in 6.2 mi West 26.5 mph - N/A   Partly Cloudy
5:00 AM 42.8 °F 33.5 °F 37.4 °F 81% 29.89 in 6.2 mi West 23.0 mph - N/A   Partly Cloudy
6:00 AM 42 °F - 35 °F 70% 29.98 in 7 mi WSW 11.5 mph - -   Partly Cloudy
7:00 AM 41.0 °F 31.6 °F 35.6 °F 81% 29.95 in 6.2 mi SSW 20.7 mph - N/A   Scattered Clouds
8:00 AM 42.8 °F 35.8 °F 37.4 °F 81% 29.98 in 6.2 mi SW 13.8 mph - N/A   Scattered Clouds
9:00 AM 45 °F - 38 °F 69% 30.02 in 7 mi WSW 17.3 mph - -   Mostly Cloudy
9:00 AM 44.6 °F 37.2 °F 37.4 °F 76% 29.98 in 6.2 mi WSW 17.3 mph - N/A   Mostly Cloudy
10:00 AM 48.2 °F - 37.4 °F 66% 30.01 in 6.2 mi WSW 16.1 mph - N/A   Mostly Cloudy
11:00 AM 53.6 °F - 39.2 °F 58% 30.01 in 6.2 mi West 19.6 mph - N/A   Scattered Clouds
12:00 PM 54 °F - 36 °F 38% 30.00 in 9 mi West 16.1 mph - -   Partly Cloudy
12:00 PM 55.4 °F - 35.6 °F 47% 30.01 in 6.2 mi West 16.1 mph - N/A   Scattered Clouds
2:00 PM 59.0 °F - 35.6 °F 42% 29.95 in 6.2 mi West 15.0 mph - N/A   Scattered Clouds
3:00 PM 57 °F - 33 °F 28% 29.95 in 12 mi NW 17.3 mph - -   Partly Cloudy
3:00 PM 57.2 °F - 33.8 °F 41% 29.95 in 6.2 mi NW 17.3 mph - N/A   Scattered Clouds
4:00 PM 55.4 °F - 37.4 °F 51% 29.95 in 6.2 mi NNW 13.8 mph - N/A   Scattered Clouds
5:00 PM 53.6 °F - 41.0 °F 62% 29.98 in 6.2 mi NNW 15.0 mph - N/A   Scattered Clouds
6:00 PM 51 °F - 41 °F 59%  in 12 mi North 11.5 mph - -   Partly Cloudy
6:00 PM 50.0 °F - 41.0 °F 71% 30.01 in 6.2 mi North 11.5 mph - N/A   Scattered Clouds
7:00 PM 46.4 °F 42.9 °F 41.0 °F 81% 30.01 in 6.2 mi WNW 6.9 mph - N/A   Scattered Clouds
8:00 PM 46.4 °F 42.4 °F 39.2 °F 76% 30.04 in 6.2 mi NNW 8.1 mph - N/A   Scattered Clouds
9:00 PM 44 °F - 37 °F 69% 30.11 in 12 mi ESE 3.5 mph - -   Partly Cloudy
9:00 PM 42.8 °F 41.1 °F 37.4 °F 81% 30.06 in 6.2 mi ESE 3.5 mph - N/A   Scattered Clouds
10:00 PM 41.0 °F 39.0 °F 35.6 °F 81% 30.06 in 6.2 mi SSE 3.5 mph - N/A   Scattered Clouds
11:00 PM 39.2 °F 34.2 °F 33.8 °F 81% 30.06 in 6.2 mi South 6.9 mph - N/A   Scattered Clouds